Track OPS 4682 (SNAPSHOT) now! 10-day predictions OPS 4682 (SNAPSHOT) is classified as:
1 01314U 65027A 22183.45479931 -.00000005 00000-0 -48099-4 0 9998 2 01314 90.2647 333.8682 0032005 99.7257 320.1126 12.91766822444372